CW5575 Weather Reports


time (UTC)temp
F
wind
direction
speed
knots
gust
knots
rain 1hr
in
rain 24hr
in
rain mn
in
humidity
%
barometer
mb
20260506081010 60 57 1.7 3.5 0.00 0.00 0.00 72 1010.3
20260506080507 60 51 1.7 6.1 0.00 0.00 0.00 73 1010.1
20260506073506 61 46 3.5 9.6 0.00 0.00 0.00 72 1010.4
20260506073015 61 77 4.3 9.6 0.00 0.00 0.00 72 1010.5
20260506072507 61 51 2.6 8.7 0.00 0.00 0.00 72 1010.4
20260506072008 61 65 2.6 9.6 0.00 0.00 0.00 72 1010.4
20260506071521 62 61 3.5 9.6 0.00 0.00 0.00 72 1010.5
20260506071008 62 46 2.6 8.7 0.00 0.00 0.00 73 1010.2
20260506070507 62 9 2.6 7.0 0.00 0.00 0.00 74 1010.3
20260506062508 64 47 1.7 5.2 0.00 0.00 0.00 75 1010.1
20260506062007 64 46 2.6 7.0 0.00 0.00 0.00 74 1010.1
20260506061530 64 11 2.6 7.0 0.00 0.00 0.00 74 1010.1
20260506061011 64 37 1.7 4.3 0.00 0.00 0.00 74 1010.2
20260506060510 64 32 2.6 6.1 0.00 0.00 0.00 74 1010.0
20260506051009 67 49 1.7 8.7 0.00 0.00 0.00 74 1009.7
20260506050508 67 17 2.6 8.7 0.00 0.00 0.00 74 1009.7
20260506045011 68 36 3.5 8.7 0.00 0.00 0.00 74 1009.6
20260506044526 69 51 3.5 9.6 0.00 0.00 0.00 74 1009.5
20260506044013 69 29 3.5 9.6 0.00 0.00 0.00 73 1009.6
20260506043511 69 51 3.5 7.0 0.00 0.00 0.00 73 1009.4
20260506043025 70 70 3.5 10.4 0.00 0.00 0.00 74 1009.4
20260506042507 70 66 2.6 10.4 0.00 0.00 0.00 74 1009.2
20260506042012 70 44 2.6 9.6 0.00 0.00 0.00 73 1009.0
20260506041534 70 55 2.6 9.6 0.00 0.00 0.00 73 1008.9
20260506041010 70 52 4.3 9.6 0.00 0.00 0.00 73 1009.0
20260506040508 71 5 2.6 8.7 0.00 0.00 0.00 73 1009.0
20260506040024 71 49 2.6 9.6 0.00 0.00 0.00 73 1009.1
20260506035508 71 45 3.5 9.6 0.00 0.00 0.00 73 1009.0
20260506035008 71 49 1.7 7.8 0.00 0.00 0.00 73 1008.8
20260506034522 71 352 2.6 7.8 0.00 0.00 0.00 73 1008.8
20260506034010 71 46 2.6 7.0 0.00 0.00 0.00 73 1008.8
20260506033509 72 56 2.6 9.6 0.00 0.00 0.00 72 1009.0
20260506033027 72 41 2.6 9.6 0.00 0.00 0.00 72 1008.9
20260506032511 72 53 5.2 9.6 0.00 0.00 0.00 72 1008.7
20260506032007 73 32 3.5 9.6 0.00 0.00 0.00 72 1008.9
20260506031534 73 339 2.6 7.8 0.00 0.00 0.00 72 1008.9
20260506031009 74 39 1.7 7.0 0.00 0.00 0.00 73 1008.8
20260506030506 74 16 2.6 8.7 0.00 0.00 0.00 72 1008.2
20260506030027 74 51 2.6 8.7 0.00 0.00 0.00 72 1008.0
20260506025508 74 14 0.9 7.0 0.00 0.00 0.00 72 1007.9
20260506025006 75 352 1.7 5.2 0.00 0.00 0.00 72 1007.9
20260506024535 75 32 1.7 4.3 0.00 0.00 0.00 72 1007.7
20260506024007 75 334 0.9 3.5 0.00 0.00 0.00 72 1007.4
20260506023507 75 44 1.7 7.8 0.00 0.00 0.00 71 1007.3
20260506023029 75 18 2.6 7.8 0.00 0.00 0.00 71 1007.1
20260506022510 75 55 2.6 7.8 0.00 0.00 0.00 71 1007.0
20260506022014 75 40 2.6 7.0 0.00 0.00 0.00 71 1006.9
20260506021526 75 53 1.7 7.8 0.00 0.00 0.00 71 1007.1
20260506021007 75 26 2.6 7.8 0.00 0.00 0.00 71 1007.0
20260506020510 75 46 1.7 6.1 0.00 0.00 0.00 72 1006.6
20260506020028 76 30 1.7 6.1 0.00 0.00 0.00 71 1007.0
20260506015511 76 5 0.9 6.1 0.00 0.00 0.00 70 1006.9
20260506015011 76 26 2.6 5.2 0.00 0.00 0.00 70 1006.7
20260506014530 77 25 0.9 5.2 0.00 0.00 0.00 69 1006.7
20260506014007 78 53 0.9 7.8 0.00 0.00 0.00 69 1006.6
20260506013507 79 35 2.6 7.8 0.00 0.00 0.00 76 1006.6
20260506013029 79 252 0.0 1.7 0.00 0.00 0.00 77 1006.7
20260506012509 79 252 0.9 2.6 0.00 0.00 0.00 76 1006.7
20260506012010 79 240 0.0 4.3 0.00 0.00 0.00 76 1006.1
20260506011556 79 285 0.0 4.3 0.00 0.00 0.00 76 1006.0
20260506011011 79 281 1.7 8.7 0.00 0.00 0.00 76 1005.7
20260506010513 80 234 0.9 9.6 0.00 0.00 0.00 76 1005.6
20260506010026 80 221 2.6 9.6 0.00 0.00 0.00 76 1005.9
20260506005511 80 213 1.7 5.2 0.00 0.00 0.00 75 1006.0
20260506005009 80 219 1.7 5.2 0.00 0.00 0.00 75 1006.1
20260506004528 80 230 1.7 5.2 0.00 0.00 0.00 75 1005.9
20260506004010 80 240 1.7 5.2 0.00 0.00 0.00 76 1006.1
20260506003510 80 273 0.9 8.7 0.00 0.00 0.00 76 1006.0
20260506003005 80 277 0.0 8.7 0.00 0.00 0.00 75 1005.5
20260506002504 80 319 1.7 6.1 0.00 0.00 0.00 76 1005.6
20260506002002 81 243 0.9 7.0 0.00 0.00 0.00 75 1005.6
20260506001508 81 224 2.6 8.7 0.00 0.00 0.00 74 1005.4
20260506001004 81 190 5.2 8.7 0.00 0.00 0.00 72 1005.2
20260506000506 82 108 2.6 7.8 0.00 0.00 0.00 71 1005.1
20260506000008 82 132 2.6 7.8 0.00 0.00 0.00 71 1005.0
20260505235504 82 220 0.9 7.8 0.00 0.00 0.00 71 1004.8
20260505235003 83 253 1.7 8.7 0.00 0.00 0.00 71 1004.9
20260505234515 83 213 1.7 9.6 0.00 0.00 0.00 70 1005.1
20260505234005 83 202 3.5 10.4 0.00 0.00 0.00 70 1005.2
20260505233503 83 246 5.2 10.4 0.00 0.00 0.00 69 1005.0
20260505233003 84 236 2.6 7.8 0.00 0.00 0.00 69 1004.9
20260505232505 84 213 2.6 9.6 0.00 0.00 0.00 69 1004.9
20260505232003 84 258 3.5 9.6 0.00 0.00 0.00 68 1005.0
20260505231507 85 234 3.5 9.6 0.00 0.00 0.00 67 1005.1
20260505231002 85 196 4.3 9.6 0.00 0.00 0.00 67 1005.0
20260505230502 85 223 3.5 8.7 0.00 0.00 0.00 66 1004.8
20260505230010 86 180 2.6 8.7 0.00 0.00 0.00 67 1004.6
20260505225505 86 253 5.2 8.7 0.00 0.00 0.00 66 1004.6
20260505225003 86 263 3.5 8.7 0.00 0.00 0.00 66 1004.7
20260505224508 86 245 3.5 10.4 0.00 0.00 0.00 66 1004.6
20260505224004 86 244 3.5 10.4 0.00 0.00 0.00 65 1004.5
20260505223503 86 110 3.5 9.6 0.00 0.00 0.00 65 1004.5
20260505223010 86 202 1.7 12.2 0.00 0.00 0.00 67 1004.5
20260505222505 86 243 3.5 12.2 0.00 0.00 0.00 66 1004.6
20260505222002 86 221 2.6 12.2 0.00 0.00 0.00 66 1004.7
20260505221503 86 248 3.5 12.2 0.00 0.00 0.00 66 1004.7
20260505221002 86 213 4.3 10.4 0.00 0.00 0.00 66 1004.6
20260505220502 87 213 4.3 10.4 0.00 0.00 0.00 64 1004.6
20260505220008 87 147 3.5 13.0 0.00 0.00 0.00 65 1004.7
20260505215503 87 258 4.3 13.0 0.00 0.00 0.00 65 1004.6
20260505215006 87 250 4.3 10.4 0.00 0.00 0.00 65 1004.7
20260505214514 87 169 4.3 12.2 0.00 0.00 0.00 64 1004.7
20260505214004 87 243 2.6 11.3 0.00 0.00 0.00 66 1004.8
20260505213506 87 251 6.1 11.3 0.00 0.00 0.00 64 1004.8
20260505212503 88 300 4.3 16.5 0.00 0.00 0.00 64 1004.8
20260505212011 87 237 4.3 13.9 0.00 0.00 0.00 62 1004.8
20260505211518 88 207 7.0 10.4 0.00 0.00 0.00 63 1004.9
20260505211003 88 214 2.6 10.4 0.00 0.00 0.00 64 1004.8
20260505210502 87 246 2.6 10.4 0.00 0.00 0.00 65 1004.8
20260505210006 88 236 5.2 10.4 0.00 0.00 0.00 65 1005.0
20260505205503 88 209 5.2 10.4 0.00 0.00 0.00 64 1005.1
20260505205003 88 271 3.5 10.4 0.00 0.00 0.00 64 1005.2
20260505204508 89 224 5.2 9.6 0.00 0.00 0.00 63 1005.2
20260505204004 87 195 1.7 8.7 0.00 0.00 0.00 64 1005.2
20260505203504 87 253 2.6 9.6 0.00 0.00 0.00 63 1005.3
20260505203015 87 189 3.5 11.3 0.00 0.00 0.00 64 1005.4
20260505202505 87 227 4.3 11.3 0.00 0.00 0.00 63 1005.4
20260505202007 87 216 4.3 12.2 0.00 0.00 0.00 63 1005.4
20260505201512 87 246 5.2 12.2 0.00 0.00 0.00 64 1005.5
20260505201004 86 262 5.2 13.0 0.00 0.00 0.00 64 1005.5
20260505200503 86 242 6.1 13.0 0.00 0.00 0.00 62 1005.6
20260505200013 87 229 3.5 12.2 0.00 0.00 0.00 64 1005.6
20260505195503 86 170 6.1 12.2 0.00 0.00 0.00 64 1005.6
20260505195003 86 86 4.3 9.6 0.00 0.00 0.00 65 1005.6
20260505194508 86 247 5.2 9.6 0.00 0.00 0.00 64 1005.6
20260505194003 86 249 4.3 16.5 0.00 0.00 0.00 65 1005.6
20260505193505 86 232 6.1 16.5 0.00 0.00 0.00 65 1005.6
20260505193015 85 227 4.3 11.3 0.00 0.00 0.00 66 1005.6
20260505192504 85 285 4.3 13.9 0.00 0.00 0.00 67 1005.6
20260505192005 84 187 7.0 13.9 0.00 0.00 0.00 66 1005.7
20260505191516 84 265 4.3 11.3 0.00 0.00 0.00 69 1005.7
20260505191006 84 250 5.2 14.8 0.00 0.00 0.00 68 1005.8
20260505190505 84 207 4.3 14.8 0.00 0.00 0.00 68 1005.8
20260505190014 83 257 6.1 13.0 0.00 0.00 0.00 69 1005.8
20260505185504 83 210 6.1 13.9 0.00 0.00 0.00 69 1005.9
20260505185009 82 226 5.2 13.9 0.00 0.00 0.00 70 1005.8
20260505184520 82 240 6.1 13.9 0.00 0.00 0.00 70 1005.8
20260505184004 82 177 6.1 13.9 0.00 0.00 0.00 70 1006.0
20260505183503 82 243 6.1 12.2 0.00 0.00 0.00 70 1005.9
20260505183012 82 246 4.3 12.2 0.00 0.00 0.00 70 1005.9
20260505182503 82 275 5.2 13.0 0.00 0.00 0.00 71 1006.0
20260505182006 82 241 6.1 13.0 0.00 0.00 0.00 70 1006.0
20260505181516 82 234 2.6 13.0 0.00 0.00 0.00 69 1006.0
20260505181008 82 200 5.2 13.0 0.00 0.00 0.00 71 1006.1
20260505180507 82 211 3.5 11.3 0.00 0.00 0.00 69 1006.0
20260505180015 82 128 3.5 13.9 0.00 0.00 0.00 69 1006.0
20260505175506 83 232 6.1 13.9 0.00 0.00 0.00 67 1006.0
20260505175006 83 240 5.2 10.4 0.00 0.00 0.00 69 1006.1
20260505174518 83 220 3.5 13.0 0.00 0.00 0.00 70 1006.0
20260505174006 82 191 4.3 13.9 0.00 0.00 0.00 70 1005.9
20260505173510 81 261 6.1 13.9 0.00 0.00 0.00 70 1005.9
20260505173017 81 244 6.1 13.9 0.00 0.00 0.00 71 1006.0
20260505172503 81 225 5.2 13.0 0.00 0.00 0.00 70 1006.0
20260505172003 81 254 5.2 11.3 0.00 0.00 0.00 70 1006.1
20260505171515 81 250 3.5 10.4 0.00 0.00 0.00 71 1006.1
20260505171007 81 234 6.1 13.9 0.00 0.00 0.00 69 1006.0
20260505170508 81 207 5.2 13.9 0.00 0.00 0.00 70 1006.1
20260505170023 80 275 6.1 12.2 0.00 0.00 0.00 71 1006.1
20260505165505 80 238 3.5 13.9 0.00 0.00 0.00 71 1006.1
20260505165005 80 219 4.3 13.9 0.00 0.00 0.00 72 1006.0
20260505164518 79 203 3.5 13.9 0.00 0.00 0.00 72 1006.2
20260505164007 79 218 7.0 17.4 0.00 0.00 0.00 72 1006.2
20260505163510 79 258 6.1 18.2 0.00 0.00 0.00 72 1005.9
20260505163022 79 227 7.8 18.2 0.00 0.00 0.00 72 1006.0
20260505162506 79 234 7.0 16.5 0.00 0.00 0.00 73 1005.9
20260505162006 78 212 3.5 16.5 0.00 0.00 0.00 75 1005.9
20260505161517 78 211 7.8 18.2 0.00 0.00 0.00 74 1005.9
20260505161006 78 173 7.0 18.2 0.00 0.00 0.00 74 1005.8
20260505160506 77 200 5.2 15.6 0.00 0.00 0.00 76 1005.8
20260505153021 75 256 6.1 13.9 0.00 0.00 0.00 78 1006.1
20260505152506 75 215 5.2 9.6 0.00 0.00 0.00 78 1006.1
20260505152013 75 259 3.5 9.6 0.00 0.00 0.00 79 1006.2
20260505151520 75 209 5.2 13.0 0.00 0.00 0.00 78 1006.2
20260505151009 74 195 5.2 15.6 0.00 0.00 0.00 79 1006.1
20260505150507 74 219 2.6 17.4 0.00 0.00 0.00 79 1006.1
20260505140508 73 200 7.0 13.0 0.00 0.00 0.00 81 1005.7
20260505125008 72 202 6.1 12.2 0.00 0.00 0.00 82 1005.7
20260505124538 72 242 4.3 10.4 0.00 0.00 0.00 82 1005.5
20260505124010 72 225 3.5 13.9 0.00 0.00 0.00 82 1005.4
20260505123508 71 253 4.3 13.9 0.00 0.00 0.00 82 1005.3
20260505123022 71 238 4.3 12.2 0.00 0.00 0.00 82 1005.4
20260505122510 71 220 5.2 12.2 0.00 0.00 0.00 82 1005.2
20260505122014 71 211 5.2 13.9 0.00 0.00 0.00 82 1005.2
20260505121532 71 186 4.3 13.9 0.00 0.00 0.00 82 1005.3
20260505121011 71 224 4.3 13.9 0.00 0.00 0.00 82 1005.2
20260505120504 71 241 3.5 11.3 0.00 0.00 0.00 82 1005.2
20260505120009 71 201 4.3 11.3 0.00 0.00 0.00 82 1005.1
20260505115504 71 231 4.3 15.6 0.00 0.00 0.00 82 1005.0
20260505115003 71 214 7.0 15.6 0.00 0.00 0.00 83 1005.1
20260505114514 71 206 5.2 12.2 0.00 0.00 0.00 83 1005.0
20260505114008 71 226 4.3 12.2 0.00 0.00 0.00 82 1005.0
20260505113506 71 234 4.3 12.2 0.00 0.00 0.00 82 1005.0
20260505113004 71 194 5.2 12.2 0.00 0.00 0.00 82 1005.0
20260505112503 71 223 3.5 12.2 0.00 0.00 0.00 82 1004.9
20260505112003 71 245 5.2 13.9 0.00 0.00 0.00 82 1005.1
20260505111504 71 248 4.3 13.9 0.00 0.00 0.00 82 1005.1
20260505111004 71 168 3.5 10.4 0.00 0.00 0.00 82 1005.0
20260505110504 71 216 3.5 9.6 0.00 0.00 0.00 82 1004.9
20260505102006 71 178 6.1 12.2 0.00 0.00 0.00 82 1005.1
20260505101503 71 232 4.3 10.4 0.00 0.00 0.00 82 1005.1
20260505101003 71 227 6.1 10.4 0.00 0.00 0.00 82 1005.1
20260505100503 71 258 3.5 9.6 0.00 0.00 0.00 82 1005.2
20260505100014 71 263 3.5 10.4 0.00 0.00 0.00 82 1005.3
20260505095503 71 258 3.5 10.4 0.00 0.00 0.00 82 1005.4
20260505095005 71 227 3.5 11.3 0.00 0.00 0.00 82 1005.3
20260505094513 71 219 4.3 11.3 0.00 0.00 0.00 82 1005.4
20260505094005 71 222 4.3 11.3 0.00 0.00 0.00 82 1005.4
20260505093506 71 159 3.5 11.3 0.00 0.00 0.00 82 1005.6
20260505093024 71 190 3.5 13.0 0.00 0.00 0.00 82 1005.6
20260505092505 71 264 4.3 13.9 0.00 0.00 0.00 82 1005.5
20260505092008 71 233 5.2 13.9 0.00 0.00 0.00 82 1005.4
20260505091523 71 236 6.1 12.2 0.00 0.00 0.00 82 1005.4
20260505091006 71 244 2.6 12.2 0.00 0.00 0.00 82 1005.5
20260505090503 71 204 4.3 9.6 0.00 0.00 0.00 82 1005.5
20260505090004 71 215 2.6 12.2 0.00 0.00 0.00 82 1005.2
20260505085504 71 175 4.3 12.2 0.00 0.00 0.00 82 1005.3
20260505085009 71 223 4.3 14.8 0.00 0.00 0.00 82 1005.3
20260505084506 71 213 4.3 14.8 0.00 0.00 0.00 82 1005.4
20260505084005 71 191 4.3 11.3 0.00 0.00 0.00 82 1005.4
20260505083509 71 250 4.3 11.3 0.00 0.00 0.00 82 1005.5
20260505083018 71 225 3.5 11.3 0.00 0.00 0.00 82 1005.5
20260505082506 71 231 3.5 9.6 0.00 0.00 0.00 82 1005.5
20260505082008 71 242 3.5 13.0 0.00 0.00 0.00 82 1005.5
20260505081518 71 45 2.6 13.0 0.00 0.00 0.00 82 1005.5